Content
SEND FEEDBACK

Daily
Averages
Monthly
Summary
United States of America

EL PASO, TEXAS


Home > North America > United States > Texas
Elevation: 1194 meters     Latitude: 31 48N     Longitude: 106 24W

WEATHER
 
SELECT A DAY
Number of Records: 171,958;   Date Range: 1/1/95 - 7/29/14
 
SHARE

PRINT THIS DATA

[ ← Previous Day ]
WEATHER ALMANAC - 1 SEPTEMBER, 2013
[ Next Day → ]
[ °F ]   °C
Weather ElementAverageHighLow
Temperature30.3 °C36.1 °C (4:51 pm)23.9 °C (5:51 am)
Dewpoint10.7 °C15.6 °C (7:51 am)4.4 °C (5:51 pm)
Humidity32.7 %56 % (7:51 am)14 % (5:51 pm)
Barometer1007.5 hPa1009.5 hPa (9:51 am)1005.4 hPa (4:51 pm)
Wind Speed8.4 km/h14.8 km/h (2:51 am)
Wind Gust31.5 km/h (2:51 pm)
Weather ElementAverage
Visibility16.1 km
Wind DirectionE (93.9 °)

Weather ElementTotal
Precipitation---
Cooling Degree Days11.7 (Base 18.3)
Growing Degree Days20 (Base 10)
Averaged from 23 records on 1 September, 2013
WEATHER CONDITIONS BREAKOUT
WIND DIRECTION BREAKOUT
WEATHER BY HOUR - 1 SEPTEMBER, 2013
[ °F ]   °C
Local TimeTemperatureDewpointHumidityBarometerVisibilityWind DirectionWind SpeedGust SpeedPrecipitationEventsConditions
1:51 AM30 °C11.7 °C32 %1006.4 hPa16.1 kmWNW (290°)13 km/hScattered Clouds
2:51 AM26.1 °C13.3 °C45 %1006.8 hPa16.1 kmEast (100°)14.8 km/hScattered Clouds
3:51 AM24.4 °C13.9 °C52 %1007.5 hPa16.1 kmESE (110°)7.4 km/hScattered Clouds
4:51 AM24.4 °C13.9 °C52 %1007.1 hPa16.1 kmCalmPartly Cloudy
5:51 AM23.9 °C14.4 °C55 %1007.8 hPa16.1 kmSSE (150°)5.6 km/hPartly Cloudy
6:51 AM24.4 °C14.4 °C54 %1008.1 hPa16.1 kmCalmScattered Clouds
7:51 AM25 °C15.6 °C56 %1008.5 hPa16.1 kmSE (130°)9.3 km/hScattered Clouds
8:51 AM26.7 °C15 °C48 %1009.1 hPa16.1 kmESE (110°)11.1 km/hScattered Clouds
9:51 AM28.3 °C15 °C44 %1009.5 hPa16.1 kmCalmScattered Clouds
10:51 AM31.7 °C13.9 °C34 %1008.8 hPa16.1 kmVariable5.6 km/hPartly Cloudy
11:51 AM32.8 °C12.8 °C29 %1008.5 hPa16.1 kmNNW (340°)7.4 km/hPartly Cloudy
12:51 PM34.4 °C13.3 °C28 %1007.8 hPa16.1 kmVariable5.6 km/hPartly Cloudy
1:51 PM35 °C11.7 °C24 %1007.1 hPa16.1 kmCalmPartly Cloudy
2:51 PM35 °C10 °C22 %1006.8 hPa16.1 kmSSE (160°)13 km/h31.5 km/hPartly Cloudy
3:51 PM35.6 °C6.1 °C16 %1006.1 hPa16.1 kmESE (120°)11.1 km/hPartly Cloudy
4:51 PM36.1 °C5.6 °C15 %1005.4 hPa16.1 kmENE (60°)7.4 km/hScattered Clouds
5:51 PM36.1 °C4.4 °C14 %1005.8 hPa16.1 kmENE (70°)9.3 km/hScattered Clouds
6:51 PM35 °C6.1 °C17 %1005.8 hPa16.1 kmEast (100°)11.1 km/hScattered Clouds
7:51 PM33.3 °C5.6 °C18 %1006.4 hPa16.1 kmEast (100°)14.8 km/hScattered Clouds
8:51 PM31.7 °C5.6 °C19 %1007.5 hPa16.1 kmEast (90°)13 km/hPartly Cloudy
9:51 PM30 °C6.7 °C23 %1008.1 hPa16.1 kmEast (90°)13 km/hPartly Cloudy
10:51 PM28 °C8 °C28 %1008.5 hPa16.1 kmENE (70°)5.6 km/hPartly Cloudy
11:51 PM29.4 °C7.8 °C26 %1008.8 hPa16.1 kmENE (70°)13 km/hClear
Hourly data recorded from KELP, located 0 kilometers away from El Paso, Texas







STORIES FROM OUR PARTNERS